SCP
2 2 1 1 1 1 1 1 1 1 1 1 1 1 1 1 1 1 1 0 0 0 0 0 0 0 1 1 1 1 0 0 0 0 0 0 0 0 0 0 0 0 0
2 2 1 1 1 1 1 1 1 1 1 1 1 1 1 1 1 1 1 0 0 0 0 0 0 1 1 1 1 1 0 0 0 0 0 0 0 0 0 0 0 0 0
2 2 2 1 1 1 1 1 1 1 1 1 1 2 2 1 1 1 1 1 0 0 0 0 0 0 1 1 1 0 0 0 0 0 0 0 0 0 0 0 0 0 0
2 2 2 1 1 1 1 1 1 1 1 0 1 1 2 2 2 1 1 1 1 1 0 0 0 0 0 1 1 0 0 0 0 0 1 1 1 1 1 0 0 0 0
2 2 2 1 1 1 1 1 1 1 1 0 1 1 1 1 1 1 1 1 1 1 1 1 0 0 0 0 1 1 1 1 1 1 1 1 1 0 0 0 0 0 0
2 2 2 1 1 1 1 1 1 1 0 0 0 0 0 1 1 1 1 1 1 1 1 1 1 1 0 0 0 1 1 1 1 1 1 1 0 0 0 0 0 0 0
2 2 2 1 1 1 1 1 1 1 0 0 0 0 0 0 0 1 1 1 1 1 1 1 1 1 1 0 0 0 1 1 0 1 1 1 0 0 0 0 0 0 0
2 2 1 1 1 1 1 1 1 1 0 0 0 0 0 0 0 0 0 1 1 1 1 1 1 1 1 0 0 0 0 0 0 0 0 0 0 0 0 0 0 0 0
2 1 1 1 1 1 1 0 1 1 0 0 0 0 0 0 0 0 0 0 0 1 1 1 1 1 0 0 0 0 0 0 0 0 0 0 0 0 0 0 0 0 0
1 1 1 1 1 1 1 1 1 1 1 0 0 0 0 0 0 0 0 0 0 0 0 0 1 1 0 0 0 0 0 0 0 0 0 0 0 0 0 0 0 0 0
1 1 1 1 1 1 1 1 1 1 1 1 0 0 0 0 0 0 0 0 0 0 0 0 1 1 0 0 0 0 0 0 0 0 0 0 0 0 0 0 0 0 0
1 1 1 1 1 1 1 1 1 1 1 1 0 0 0 0 0 0 0 0 0 0 0 0 0 0 0 0 0 0 0 0 0 0 0 0 0 0 0 0 0 0 0
1 1 1 1 1 1 1 1 1 0 0 0 0 0 0 0 0 0 0 0 0 0 0 0 0 0 0 0 0 0 0 0 0 0 0 0 0 0 0 0 0 0 0
1 1 1 1 1 1 1 1 0 0 0 0 0 0 0 0 0 0 0 0 0 0 0 0 0 0 0 0 0 0 0 0 0 0 0 0 0 0 0 0 0 0 0
1 1 1 1 1 1 0 0 0 0 0 0 0 0 0 0 0 0 0 0 0 0 0 0 0 0 0 0 0 0 0 0 0 0 0 0 0 0 0 0 0 0 0
1 1 1 1 1 1 1 0 0 0 0 0 0 0 0 0 0 0 0 0 0 0 0 0 0 0 0 0 0 0 0 0 0 0 0 0 0 0 0 0 0 0 0
1 1 1 1 1 1 1 0 0 0 0 0 0 0 0 0 0 0 0 0 0 0 0 0 0 0 0 0 0 0 0 0 0 0 0 0 0 0 0 0 0 0 0
1 1 1 1 1 1 1 0 0 0 0 0 0 0 0 0 0 0 0 0 0 0 0 0 0 0 0 0 0 0 0 0 0 0 0 0 0 0 0 0 0 0 0
1 1 1 1 1 1 0 0 0 0 0 0 0 0 0 0 0 0 0 0 0 0 0 0 0 0 0 0 0 0 0 0 0 0 0 0 0 0 0 0 0 0 0
0 0 1 1 1 0 0 0 0 0 0 0 0 0 0 0 0 0 0 0 0 0 0 0 0 0 0 0 0 0 0 0 0 0 0 0 0 0 0 0 0 0 0
0 0 0 1 0 0 0 0 0 0 0 0 0 0 0 0 0 0 0 0 0 0 0 0 0 0 0 0 0 0 0 0 0 0 0 0 0 0 0 0 0 0 0
0 0 0 0 0 0 0 0 0 0 0 0 0 0 0 0 0 0 0 0 0 0 0 0 0 0 0 0 0 0 0 0 0 0 0 0 0 0 0 0 0 0 0
0 0 0 0 0 0 0 0 0 0 0 0 0 0 0 0 0 0 0 0 0 0 0 0 0 0 0 0 0 0 0 0 0 0 0 0 0 0 0 0 0 0 0
0 0 0 0 0 0 0 0 0 0 0 0 0 0 0 0 0 0 0 0 0 0 0 0 0 0 0 0 0 0 0 0 0 0 0 0 0 0 0 0 0 0 0
0 0 0 0 0 0 0 0 0 0 0 0 0 0 0 0 0 0 0 0 0 0 0 0 0 0 0 0 0 0 0 0 0 0 0 0 0 0 0 0 0 0 0
0 0 0 0 0 0 0 0 0 0 0 0 0 0 0 0 0 0 0 0 0 0 0 0 0 0 0 0 0 0 0 0 0 0 0 0 0 0 0 0 0 0 0
Wind_Speed
3 3 3 3 3 3 3 3 3 4 4 4 4 4 4 4 4 4 4 6 6 6 7 7 8 8 9 9 9 8 8 8 8 8 7 7 7 7 7 7 8 8 8
3 3 3 3 3 3 3 3 4 4 3 4 4 4 4 4 4 4 4 5 6 6 7 7 7 7 8 8 8 8 8 7 7 7 7 7 7 7 6 6 6 7 7
3 3 3 4 3 3 4 3 4 3 3 3 4 4 3 3 4 4 4 4 4 6 6 6 6 6 7 7 7 7 7 7 7 6 6 6 6 6 6 6 6 6 6
4 3 3 3 4 4 4 4 4 4 4 3 3 3 3 3 3 4 4 3 3 3 5 5 5 6 6 6 6 6 6 6 6 6 5 5 6 6 6 6 6 7 7
4 4 3 3 4 4 4 4 4 4 4 4 3 3 2 2 3 3 3 4 3 3 3 5 5 5 5 5 5 5 5 5 5 5 5 5 5 5 5 6 6 6 6
4 4 3 4 4 4 4 5 5 4 4 4 4 3 2 1 2 2 2 3 2 3 2 3 3 3 4 4 4 4 4 6 6 5 5 5 5 4 4 5 5 5 5
4 3 3 4 5 4 5 5 5 6 4 5 4 3 2 1 1 1 1 2 2 2 2 2 1 1 2 4 3 4 4 5 5 5 5 5 4 4 4 4 4 5 5
4 4 4 4 5 5 5 6 6 5 4 4 4 4 3 3 2 1 2 2 2 2 2 2 2 2 2 2 4 4 4 4 4 4 4 4 4 4 4 4 4 4 4
4 4 5 4 6 6 5 7 7 7 5 5 4 3 4 4 3 3 2 2 2 2 2 2 2 2 2 2 3 3 3 2 2 3 3 3 3 3 2 3 4 4 3
4 4 5 5 5 5 6 7 7 6 7 6 4 3 2 2 3 3 3 3 2 3 2 2 3 3 2 2 2 3 3 2 1 2 2 2 2 2 2 3 3 3 3
4 4 4 5 5 5 6 7 7 7 6 6 5 4 3 3 3 3 4 4 3 2 2 3 2 2 3 2 2 3 3 2 2 2 2 2 1 1 2 2 2 3 3
3 4 4 5 5 5 6 6 7 8 7 7 6 5 5 5 5 4 4 4 3 2 2 2 2 2 2 3 3 3 3 2 2 2 2 1 1 1 1 1 1 2 2
3 4 4 5 5 5 5 6 7 7 8 8 7 6 5 5 4 4 4 4 3 2 2 2 3 2 2 3 3 4 4 3 2 2 3 2 1 0 0 1 1 1 1
4 5 5 5 6 6 6 6 6 7 7 8 8 7 5 5 4 5 4 4 4 3 3 4 3 3 3 3 2 4 4 4 3 3 3 2 1 1 0 1 1 1 1
4 6 6 6 6 6 6 6 6 7 7 7 7 7 6 5 5 5 5 5 5 4 4 5 3 4 3 3 3 4 3 4 4 4 3 2 2 1 1 1 2 1 2
5 5 6 6 6 5 5 6 6 7 8 7 5 7 7 5 5 5 5 5 5 5 4 3 3 3 4 3 4 4 3 4 5 5 4 3 3 2 2 2 2 2 2
4 5 5 6 5 5 5 5 6 7 8 7 7 7 8 7 5 5 5 5 5 4 5 3 2 3 5 5 4 4 4 4 4 5 5 5 4 3 3 2 2 3 3
4 4 5 5 5 6 6 6 7 8 8 8 8 8 8 6 7 6 5 6 5 6 5 5 4 4 5 5 5 4 3 3 3 4 6 6 5 4 4 3 3 3 3
4 4 5 5 5 6 6 7 7 7 8 8 8 8 8 8 8 6 6 6 5 5 5 5 4 3 3 4 4 4 4 3 3 3 5 6 6 5 5 4 4 4 3
5 5 5 5 5 5 6 6 5 6 6 7 7 7 8 9 8 8 6 7 6 6 5 5 4 4 3 3 4 4 4 4 3 3 4 4 5 6 6 5 5 5 4
5 5 5 5 5 5 5 5 5 5 5 5 5 6 6 7 7 7 6 7 7 6 5 5 5 4 4 5 5 4 4 3 3 3 3 3 3 3 4 6 6 5 4
5 5 5 5 5 5 5 5 5 5 5 5 5 5 5 6 6 7 7 8 8 8 7 6 5 6 7 6 5 4 4 4 3 3 3 3 3 3 3 3 4 5 5
5 5 5 5 5 5 5 5 5 4 5 5 5 5 4 4 6 7 6 7 7 7 8 7 7 7 7 6 6 6 6 5 3 2 3 3 3 3 2 2 3 5 5
4 4 5 5 5 5 5 4 4 4 5 5 6 6 6 6 6 7 6 6 7 7 7 7 7 6 5 5 6 5 5 3 1 1 2 2 2 2 2 2 3 5 5
4 4 5 5 5 4 4 5 5 4 4 5 6 6 6 7 7 8 7 7 6 5 5 5 4 3 3 4 5 4 4 4 3 2 2 2 2 1 2 2 2 5 5
5 4 5 5 5 4 4 4 5 4 4 4 4 5 6 7 7 8 7 7 7 6 5 4 3 3 4 5 6 6 5 5 3 2 3 3 2 2 2 2 2 2 3
Wind_Direction
166 164 166 164 163 157 161 159 156 149 146 140 133 130 129 130 123 116 106 85 84 96 108 111 113 113 112 107 103 101 101 100 97 98 93 88 85 82 78 78 78 77 75
173 175 177 170 166 166 164 165 162 157 149 143 137 135 127 129 123 119 118 109 88 83 93 104 109 110 113 113 109 102 101 103 100 99 96 91 85 78 75 77 81 81 77
181 177 186 177 169 169 165 161 158 154 147 142 137 133 128 125 129 126 122 118 116 97 83 90 99 106 109 111 112 106 102 102 98 101 98 93 89 82 74 73 80 81 78
188 184 185 182 175 172 169 162 163 155 150 151 141 132 132 129 129 130 127 123 121 122 108 86 84 91 100 106 109 108 105 105 102 102 102 99 97 92 84 78 79 81 80
195 195 191 180 179 179 173 166 165 162 155 148 133 128 124 127 131 135 133 130 126 124 122 108 97 80 84 93 103 106 106 105 109 106 104 103 106 99 91 89 88 84 83
203 203 193 187 180 182 177 173 164 161 158 147 131 115 103 115 133 136 136 140 137 131 130 133 134 113 91 87 91 104 104 98 102 107 108 105 101 104 106 99 94 90 87
205 210 197 192 187 187 187 180 164 159 156 152 142 131 119 126 147 148 158 162 151 149 142 146 144 146 131 116 97 91 92 99 103 105 112 110 103 99 105 109 106 97 91
207 209 203 202 197 189 187 184 172 167 166 178 172 164 165 177 178 197 186 182 178 167 162 159 156 158 143 141 105 91 84 95 111 107 107 121 113 101 96 99 111 109 100
219 212 210 213 205 196 192 193 191 185 177 186 198 188 180 185 165 174 186 188 192 189 183 174 175 169 161 143 135 117 88 83 110 121 111 104 113 117 113 99 90 95 101
228 223 216 217 212 203 199 200 200 198 188 184 191 223 242 161 177 168 178 184 194 202 193 185 189 183 177 164 132 108 106 98 113 134 130 119 109 111 104 95 88 87 84
231 233 226 220 219 210 203 206 204 205 201 196 192 188 184 182 202 194 187 179 186 196 197 196 194 188 181 175 169 131 127 143 156 161 152 136 126 110 115 105 99 86 79
236 235 234 230 225 219 209 207 210 210 210 207 204 200 194 192 195 197 196 188 190 184 195 206 199 189 186 185 171 137 143 150 172 183 183 168 150 125 137 111 119 111 95
243 241 240 237 233 227 219 214 211 211 212 210 209 208 209 211 200 202 196 195 196 183 191 209 201 190 184 191 173 160 158 158 173 184 192 187 172 139 145 185 160 160 153
247 243 240 240 241 235 223 218 215 212 213 214 213 212 210 208 200 201 198 192 190 197 204 206 192 190 192 196 167 180 168 162 175 184 193 188 175 150 163 200 220 212 178
251 244 236 239 240 238 229 220 221 213 213 215 213 212 214 209 202 203 203 204 200 204 214 201 193 192 193 194 172 187 187 161 176 179 179 186 177 170 180 210 214 202 179
254 251 242 239 241 240 232 226 224 214 210 211 211 210 212 209 200 200 202 210 218 215 218 200 198 192 190 187 180 192 185 166 182 184 185 187 188 189 190 205 215 200 188
257 247 250 244 240 243 236 236 226 216 211 209 207 212 213 206 200 199 200 205 208 207 214 209 202 188 199 194 183 191 193 196 191 191 195 196 197 200 201 210 220 210 199
261 252 249 250 245 242 237 241 234 221 216 210 208 208 214 207 204 202 200 204 205 202 204 210 202 196 210 203 194 193 196 204 210 185 200 202 200 204 205 209 212 212 204
268 259 252 251 251 245 238 238 237 230 222 217 210 208 211 209 206 203 203 204 205 201 200 204 203 195 208 200 198 201 203 207 211 191 199 208 210 213 211 211 208 209 210
268 261 254 252 254 251 242 237 236 237 228 225 217 214 214 211 210 206 204 204 201 195 190 191 196 196 201 195 201 201 206 211 213 204 211 214 212 213 214 211 208 208 209
266 261 254 253 255 248 244 237 232 236 231 225 220 217 221 221 220 216 209 202 198 197 191 194 195 197 198 190 202 201 211 210 220 205 211 211 211 221 215 212 213 209 211
268 263 258 252 252 250 255 247 241 232 230 224 221 219 219 216 215 216 217 210 203 201 199 198 203 206 210 206 199 197 196 199 216 191 209 222 214 226 230 231 206 204 207
272 266 264 260 252 253 248 239 242 238 232 231 228 222 215 212 211 212 210 210 211 214 212 208 210 214 210 203 193 196 203 208 223 175 189 223 211 228 227 211 197 200 201
275 272 269 263 255 252 243 238 239 234 236 237 235 229 220 214 210 208 209 214 218 218 216 216 217 219 214 203 201 201 198 199 187 182 200 217 211 226 220 212 194 208 211
280 274 268 264 258 252 238 237 241 229 229 236 238 234 229 221 204 200 205 209 214 218 210 205 212 201 181 178 180 171 172 181 209 204 200 213 205 224 229 226 201 205 216
280 277 269 264 257 254 250 244 241 230 228 234 236 232 229 224 204 199 207 208 210 211 194 185 183 173 176 174 182 197 194 194 194 199 186 192 188 184 226 221 222 214 220